Location: Wiesbaden
(50.0830°N, 8.2500°E)
Time: 08:34:57
(UTC+01:00)

ISS - Pass Details

Date: 07 December 2018
Orbit: 401 x 408 km, 51.6° (Epoch: 12 December)

Event Time Altitude Azimuth Distance (km) Brightness Sun altitude
Rises 18:27:09 0° 286° (WNW) 2,320 1.1 -18.5°
Reaches altitude 10° 18:29:14 10° 285° (WNW) 1,458 -0.1 -18.8°
Maximum altitude 18:32:30 77° 201° (SSW) 417 -3.8 -19.4°
Enters shadow 18:32:43 72° 152° (SSE) 428 -3.9 -19.4°
